SCP
-0 -0 0 -0 -0 0 -0 -0 0 -0 0 0 0 0 0 0 0 0 0 -0 -0 -0 -0 -0 -0 -0 -0 -0 -0 -0 -0 -0 -0 -0 -0 -0 -0 -0 -0 -0 -0 -0 -0 -0 -0 -0 -0 -0 -0
0 0 0 0 -0 -0 -0 -0 -0 0 0 0 0 0 0 0 0 0 0 0 0 -0 -0 -0 -0 -0 -0 -0 -0 -0 -0 -0 -0 -0 -0 -0 -0 -0 -0 -0 -0 -0 -0 -0 -0 -0 -0 -0 -0
0 0 0 -0 0 -0 0 -0 -0 -0 0 0 0 0 0 0 0 0 -0 -0 0 -0 -0 -0 -0 -0 -0 -0 -0 -0 -0 -0 -0 -0 -0 -0 -0 -0 -0 -0 -0 -0 -0 -0 -0 -0 -0 -0 -0
0 0 0 0 0 0 0 -0 -0 -0 -0 0 0 -0 0 0 0 0 -0 -0 -0 -0 -0 -0 -0 -0 -0 -0 -0 -0 -0 -0 -0 -0 -0 -0 -0 -0 -0 -0 -0 0 -0 -0 -0 -0 -0 -0 -0
0 0 0 0 0 0 0 -0 -0 -0 -0 -0 0 -0 0 0 0 0 0 -0 -0 -0 -0 -0 -0 -0 -0 -0 -0 -0 -0 -0 -0 -0 -0 -0 -0 -0 -0 -0 0 0 0 -0 -0 -0 -0 -0 -0
0 0 0 0 0 0 0 0 0 -0 -0 -0 -0 -0 -0 0 0 0 0 0 0 -0 -0 -0 -0 -0 -0 -0 -0 -0 -0 -0 -0 -0 -0 -0 -0 -0 -0 0 -0 -0 0 -0 -0 -0 -0 0 0
0 0 0 0 0 0 0 0 0 0 0 -0 0 -0 -0 0 0 0 0 0 0 0 -0 -0 -0 -0 -0 -0 -0 -0 -0 -0 0 0 -0 -0 -0 -0 -0 0 -0 -0 0 -0 -0 0 0 0 0
0 0 0 0 0 0 0 0 0 0 0 0 0 -0 -0 0 0 0 0 0 0 0 0 -0 -0 -0 -0 -0 -0 -0 -0 -0 -0 -0 -0 -0 -0 -0 -0 -0 0 -0 0 0 0 0 0 0 0
0 0 0 0 0 0 0 0 0 0 0 0 0 0 0 0 0 0 0 0 0 0 0 0 0 0 0 0 0 -0 -0 -0 0 0 -0 0 0 0 0 0 0 0 0 0 0 0 0 0 0
0 0 0 0 0 0 0 0 0 0 0 0 0 0 0 0 0 0 0 0 0 0 -0 0 0 0 0 0 0 0 0 0 0 0 0 0 0 0 0 0 0 0 0 0 0 0 0 0 0
0 0 0 0 0 0 0 0 0 0 0 0 0 0 0 0 0 0 0 0 0 0 0 0 0 0 0 0 0 0 0 0 0 0 0 0 0 0 0 0 0 0 0 0 0 0 0 0 0
0 0 0 0 0 0 0 0 0 0 0 0 0 0 0 0 0 -0 0 0 0 0 0 0 0 0 0 0 0 0 0 0 0 0 0 0 0 0 0 0 0 0 0 0 0 0 0 0 0
0 0 0 0 0 0 0 0 0 0 0 0 0 0 0 0 0 0 0 0 0 0 0 0 0 0 0 0 0 0 0 0 0 0 0 0 0 0 0 0 0 0 0 0 0 0 0 0 0
0 0 0 0 0 0 0 0 0 0 0 0 0 0 0 0 0 0 0 0 0 0 0 0 0 0 0 0 0 0 0 0 0 0 0 0 0 0 0 0 0 0 0 0 0 0 0 0 0
0 0 0 0 0 0 0 0 0 0 0 0 0 0 0 0 0 0 0 0 0 0 0 0 0 0 0 0 0 0 0 0 0 0 0 0 0 0 0 0 0 0 0 0 0 0 0 0 0
0 0 0 0 0 0 0 0 0 0 0 0 0 0 0 0 0 0 0 0 0 0 0 0 0 0 0 0 0 0 0 0 0 0 0 0 0 0 0 0 0 0 0 0 0 0 0 0 0
0 0 0 0 0 0 0 0 0 0 0 0 0 0 0 0 0 0 0 0 0 0 0 0 0 0 0 0 0 0 0 0 0 0 0 0 0 0 0 0 0 0 0 0 0 0 0 0 0
0 0 0 0 0 0 0 0 0 0 0 0 0 0 0 0 0 0 0 0 0 0 0 0 0 0 0 0 0 0 0 0 0 0 0 0 0 0 0 0 0 0 0 0 0 0 0 0 0
0 0 0 0 0 0 0 0 0 0 0 0 0 0 0 0 0 0 0 0 0 0 0 0 0 0 0 0 0 0 0 0 0 0 0 0 0 0 0 0 0 0 0 0 0 0 0 0 0
0 0 0 0 0 0 0 0 0 0 0 0 0 0 0 0 0 0 0 0 0 0 0 0 0 0 0 0 0 0 0 0 0 0 0 0 0 0 0 0 0 0 0 0 0 0 0 0 0
0 0 0 0 0 0 0 0 0 0 0 0 0 0 0 0 0 0 0 0 0 0 0 0 0 0 0 0 0 0 0 0 0 0 0 0 0 0 0 0 0 0 0 0 0 0 0 0 0
0 0 0 0 0 0 0 0 0 0 0 0 0 0 0 0 0 0 0 0 0 0 0 0 0 0 0 0 0 0 0 0 0 0 0 0 0 0 0 0 0 0 0 0 0 0 0 0 0
0 0 0 0 0 0 0 0 0 0 0 0 0 0 0 0 0 0 0 0 0 0 0 0 0 0 0 0 0 0 0 0 0 0 0 0 0 0 0 0 0 0 0 0 0 0 0 0 0
0 0 0 0 0 0 0 0 0 0 0 0 0 0 0 0 0 0 0 0 0 0 0 0 0 0 0 0 0 0 0 0 0 0 0 0 0 0 0 0 0 0 0 0 0 0 0 0 0
0 0 0 0 0 0 0 0 0 0 0 0 0 0 0 0 0 0 0 0 0 0 0 0 0 0 0 0 0 0 0 0 0 0 0 0 0 0 0 0 0 0 0 0 0 0 0 0 0
0 0 0 0 0 0 0 0 0 0 0 0 0 0 0 0 0 0 0 0 0 0 0 0 0 0 0 0 0 0 0 0 0 0 0 0 0 0 0 0 0 0 0 0 0 0 0 0 0
0 0 0 0 0 0 0 0 0 0 0 0 0 0 0 0 0 0 0 0 0 0 0 0 0 0 0 0 0 0 0 0 0 0 0 0 0 0 0 0 0 0 0 0 0 0 0 0 0
0 0 0 0 0 0 0 0 0 0 0 0 0 0 0 0 0 0 0 0 0 0 0 0 0 0 0 0 0 0 0 0 0 0 0 0 0 0 0 0 0 0 0 0 0 0 0 0 0
0 0 0 0 0 0 0 0 0 0 0 0 0 0 0 0 0 0 0 0 0 0 0 0 0 0 0 0 0 0 0 0 0 0 0 0 0 0 0 0 0 0 0 0 0 0 0 0 0
0 0 0 0 0 0 0 0 0 0 0 0 0 0 0 0 0 0 0 0 0 0 0 0 0 0 0 0 0 0 0 0 0 0 0 0 0 0 0 0 0 0 0 0 0 0 0 0 0
Wind_Speed_500mb
35 35 24 2 8 10 2 5 3 2 3 2 5 8 7 5 4 4 24 27 35 34 35 33 27 19 15 16 13 12 12 11 13 11 13 16 15 16 17 13 19 25 24 22 24 23 23 28 25
33 31 11 6 9 7 7 6 6 4 9 22 9 7 5 2 3 4 34 32 35 31 31 32 28 23 13 8 11 10 11 12 16 16 17 17 14 14 14 15 18 23 22 22 21 18 20 24 27
27 20 6 8 7 7 8 6 7 6 12 4 4 6 3 2 4 12 21 29 36 31 27 28 26 20 13 8 7 8 9 10 12 21 17 12 14 13 13 13 15 19 21 19 16 14 15 18 22
24 8 9 8 6 1 3 9 11 7 5 5 8 3 1 2 3 19 23 27 30 29 28 27 24 19 13 9 8 6 6 11 11 14 15 17 13 12 11 13 12 14 15 17 15 11 10 11 18
16 8 8 8 4 3 4 13 17 5 3 5 6 3 1 4 8 18 24 27 26 29 27 26 23 19 15 13 11 8 5 7 14 14 15 18 11 8 7 8 10 12 13 13 12 10 7 6 11
11 5 9 3 5 6 2 10 9 4 5 6 3 7 3 8 8 11 21 21 22 25 27 25 22 20 18 16 13 10 5 5 11 16 13 17 8 4 6 8 9 9 10 12 11 10 6 3 5
7 6 6 6 3 2 5 15 7 8 6 4 5 5 4 11 14 10 15 21 22 24 28 27 24 23 21 19 17 15 9 6 11 15 12 15 12 6 5 9 9 10 13 14 14 11 7 5 1
5 8 6 3 5 5 4 13 4 14 8 3 11 3 3 5 16 16 18 23 25 25 28 28 27 25 23 22 21 19 13 10 9 17 15 14 14 12 8 9 11 11 12 14 13 12 10 8 7
2 7 3 6 7 6 5 5 4 6 9 11 10 7 8 6 18 21 27 31 31 32 31 31 28 28 26 25 25 24 20 16 15 16 22 19 16 15 13 11 10 13 15 15 15 15 14 13 11
5 7 15 7 5 4 2 4 11 7 8 10 11 14 10 10 19 25 29 33 36 38 38 37 33 28 30 30 29 28 26 24 20 18 22 23 22 20 17 14 12 11 17 20 19 20 19 17 16
4 10 8 6 8 2 5 3 5 8 5 18 22 15 14 16 20 27 26 33 31 32 37 39 37 34 32 34 33 32 31 30 27 24 23 26 28 26 23 20 17 14 18 22 23 23 22 22 21
6 12 9 5 7 4 3 5 6 14 10 11 17 11 16 21 25 27 27 24 28 33 34 36 38 40 38 36 37 37 36 34 33 30 29 29 32 31 28 25 22 19 20 23 25 26 26 26 26
8 10 15 18 13 9 8 13 15 16 23 16 19 16 21 26 30 30 34 38 36 34 34 40 39 41 42 42 40 40 41 40 36 36 34 34 31 34 32 29 29 25 25 25 28 29 30 31 31
7 16 17 14 26 16 8 14 14 8 18 34 35 34 25 27 31 36 41 43 46 44 39 38 46 46 45 44 44 44 43 42 40 40 39 38 37 35 35 33 33 32 30 27 30 33 35 36 38
8 6 7 10 15 12 10 17 20 52 45 41 31 31 37 40 37 44 43 50 51 51 51 53 49 48 52 51 47 47 47 47 45 43 41 43 43 42 43 40 39 35 33 34 35 37 39 41 41
7 5 6 7 26 14 21 35 3 24 37 46 52 51 52 48 40 34 47 54 55 55 59 59 60 60 55 57 55 51 49 50 51 50 47 45 46 47 47 49 46 40 40 41 41 40 43 44 44
4 6 10 12 24 9 16 18 8 13 30 33 35 37 43 48 45 42 30 30 37 44 54 62 61 65 62 58 59 57 53 54 52 54 55 52 49 49 50 52 50 46 47 49 48 47 48 49 47
12 8 10 12 5 11 12 23 18 30 26 34 36 43 52 64 67 55 50 48 45 46 44 49 58 62 65 66 64 62 62 60 59 60 58 56 56 54 54 54 53 50 51 55 54 55 53 55 52
11 10 16 4 6 6 15 24 37 39 33 42 65 63 58 65 61 52 48 50 48 47 49 54 54 58 65 71 72 72 67 64 65 65 62 60 59 59 60 60 57 52 55 57 56 57 60 61 56
8 9 10 8 6 6 9 23 27 28 30 50 59 68 64 58 56 59 57 50 51 53 60 62 60 53 60 70 73 72 72 65 63 64 65 64 64 64 63 65 66 61 59 61 61 59 65 65 61
26 33 7 5 6 5 11 32 20 21 30 40 52 59 56 54 53 49 46 49 55 65 63 62 64 58 51 58 70 75 77 75 67 66 67 65 65 68 69 69 69 68 67 69 69 65 65 70 69
32 15 13 10 6 9 6 19 13 8 10 10 27 36 47 51 52 51 53 55 52 54 56 60 60 59 53 52 63 72 77 74 65 61 54 59 63 65 67 70 73 74 76 75 76 74 72 70 75
12 16 24 12 8 5 15 7 9 2 8 13 19 28 28 30 35 36 31 33 40 39 47 48 51 56 51 53 52 63 72 70 72 72 69 62 56 55 57 59 63 69 74 77 82 85 82 80 80
13 10 8 6 19 20 32 16 33 22 12 10 21 32 35 26 14 8 2 7 17 27 31 30 34 39 45 46 47 53 63 67 72 71 71 70 64 59 52 52 56 59 65 70 74 80 86 86 88
17 17 6 12 15 26 20 16 43 6 7 11 19 27 12 3 12 17 15 17 17 12 8 15 18 17 22 26 30 31 39 50 58 59 64 64 66 66 64 60 57 53 52 56 61 70 75 78 86
44 29 10 15 11 16 9 20 33 8 42 53 54 41 13 19 21 24 26 28 29 30 33 23 9 9 12 14 13 14 18 23 32 36 42 44 51 54 58 63 61 54 48 48 52 61 67 70 78
30 33 16 6 2 4 10 13 20 14 14 13 8 10 24 32 30 32 30 31 34 38 42 40 40 36 27 14 3 4 13 19 22 26 31 37 41 49 54 58 62 61 55 52 50 57 66 74 77
17 14 17 14 15 19 8 8 17 4 12 10 14 33 43 35 35 33 34 35 36 37 39 37 37 38 36 32 30 24 18 12 7 10 16 23 31 40 44 48 57 62 64 57 49 56 65 68 75
15 18 12 8 14 9 5 13 15 22 12 16 21 51 42 35 35 34 37 36 34 30 27 29 29 29 32 32 29 25 23 19 14 14 17 22 27 30 35 40 48 53 56 59 62 60 66 75 76
37 33 38 12 20 9 3 10 7 14 16 36 39 40 35 27 30 33 34 30 26 25 21 20 23 23 26 25 23 23 22 22 23 24 25 29 33 34 38 41 42 44 47 51 58 67 58 67 76
Wind_Direction_500mb
340 344 343 11 57 66 351 267 285 123 95 299 137 140 153 90 162 208 151 156 157 162 161 157 166 175 163 118 114 111 112 110 141 132 121 117 110 114 132 132 113 104 108 102 101 100 89 82 80
339 347 350 72 86 73 279 266 218 191 127 114 77 78 86 146 135 168 158 158 161 166 165 167 172 183 163 112 106 105 98 111 141 136 129 118 112 106 116 115 109 113 112 106 108 102 90 87 87
339 352 4 85 102 150 182 212 193 160 153 173 109 70 113 162 170 163 172 165 165 173 178 181 184 186 163 137 123 101 95 121 143 143 146 138 130 120 122 124 124 118 115 119 117 99 91 82 79
342 353 58 78 96 233 223 192 183 152 116 150 150 44 70 229 96 160 174 178 175 182 188 189 192 193 180 172 166 143 115 136 164 165 156 146 159 150 145 136 135 129 125 131 125 108 99 80 71
351 22 47 70 334 298 254 178 171 163 157 149 168 239 170 178 147 170 178 176 185 188 195 195 199 202 203 206 200 187 147 152 173 171 162 160 183 164 152 150 147 147 146 140 131 124 117 92 69
16 51 54 117 313 301 140 167 152 203 160 164 156 154 219 195 170 174 181 189 189 199 203 205 208 213 221 225 222 215 191 175 188 185 186 187 200 145 168 170 165 145 144 146 154 156 158 128 64
75 65 163 170 222 265 174 169 176 182 170 233 163 128 271 220 194 184 188 198 199 204 214 218 219 220 225 229 233 233 226 215 205 210 199 187 215 214 168 191 182 166 161 168 177 177 187 200 233
35 85 114 263 208 213 173 162 228 178 206 202 178 237 335 270 212 197 197 205 210 217 219 228 229 229 236 238 230 232 247 253 239 216 219 209 203 220 205 189 187 182 180 189 192 200 211 221 242
38 66 229 220 168 238 175 152 154 184 166 179 203 259 294 304 207 206 205 208 215 218 221 226 233 239 238 240 241 239 240 243 256 236 223 226 225 223 221 216 198 203 201 204 207 216 223 233 248
115 130 213 197 228 246 144 201 175 173 170 203 214 234 254 270 222 221 220 220 223 224 226 230 236 242 245 247 244 244 246 247 243 251 242 230 232 233 234 228 225 219 217 216 221 227 233 242 252
158 178 222 264 200 252 315 305 198 186 223 219 223 223 237 230 234 231 237 242 246 243 239 241 244 246 247 252 253 250 249 249 252 246 240 238 236 239 238 235 231 229 226 229 232 235 240 245 253
188 221 202 237 227 169 225 293 285 219 223 262 200 243 239 244 246 252 247 251 254 254 250 248 248 249 251 254 254 256 254 255 253 252 250 244 240 241 247 246 241 238 235 237 241 244 248 253 256
208 204 209 228 226 247 253 244 248 248 243 248 239 258 264 256 258 261 265 260 253 254 260 254 251 249 250 254 255 256 257 257 258 254 252 251 252 244 243 246 247 246 244 244 250 252 253 256 260
219 213 222 226 242 252 251 268 249 214 251 249 251 269 263 258 267 265 261 265 261 259 260 264 256 253 250 252 256 258 262 263 260 257 253 254 253 250 246 249 249 250 253 255 255 258 257 258 260
242 290 332 213 222 239 227 276 232 251 257 262 253 255 269 271 261 261 267 269 269 269 268 263 262 259 254 254 257 258 260 262 260 260 259 256 255 256 256 258 256 255 257 257 255 258 259 261 264
172 167 199 237 184 231 167 260 149 241 233 247 258 264 269 271 270 258 280 270 264 265 268 271 263 258 258 256 256 257 261 261 260 261 260 261 261 259 260 261 262 262 260 261 259 260 263 265 267
270 217 221 300 207 164 188 269 267 224 220 235 250 258 269 279 279 280 266 291 276 275 271 268 265 258 257 257 256 257 261 260 261 261 262 262 263 262 263 264 264 263 264 265 266 265 266 267 269
192 198 235 210 259 218 209 258 253 252 263 263 262 264 275 282 281 278 270 277 281 276 277 274 265 258 256 256 254 254 255 257 257 258 258 260 262 264 262 264 265 266 267 267 268 269 269 271 272
181 187 204 231 260 208 235 247 263 263 253 259 266 273 272 278 279 277 274 273 269 269 277 279 274 265 255 252 249 248 252 255 256 258 261 261 261 263 264 264 265 265 267 269 270 272 271 270 273
181 192 215 296 241 210 289 266 264 253 247 250 263 272 274 276 270 269 270 272 271 275 278 271 268 268 259 253 253 254 256 259 262 264 264 264 263 263 263 264 267 266 266 268 268 269 273 273 272
224 225 142 187 355 299 347 289 240 259 238 249 252 258 262 265 267 270 271 272 274 276 270 271 258 262 265 260 253 253 253 256 259 263 264 263 263 264 264 266 266 268 267 268 271 269 269 272 275
223 178 165 183 99 241 131 278 230 229 249 209 247 250 255 258 262 268 276 280 282 282 269 262 253 251 258 263 254 255 256 259 265 270 277 276 272 269 269 271 272 272 272 271 273 274 271 270 269
220 153 195 164 177 29 245 286 288 240 282 266 257 255 259 271 278 285 285 289 281 289 275 256 247 242 251 259 261 256 257 264 268 272 276 277 284 281 279 277 276 277 277 278 275 275 274 272 271
134 78 81 116 223 243 234 201 265 234 199 218 244 250 269 285 281 281 290 311 296 288 278 253 241 242 242 259 268 267 264 265 267 273 279 285 288 288 290 291 287 286 284 285 285 282 279 277 273
166 134 184 214 210 239 152 178 246 264 276 239 244 256 240 148 141 135 107 77 64 29 316 245 231 224 240 256 271 281 282 281 281 284 286 290 292 293 295 293 292 290 291 290 290 288 285 283 279
201 197 164 195 209 233 183 214 236 213 240 260 250 255 183 153 143 116 93 78 71 76 71 78 121 195 216 226 240 269 285 286 292 297 297 301 302 304 304 302 297 291 293 295 298 296 291 288 283
192 213 199 109 58 89 213 280 303 239 250 250 258 217 178 148 128 110 95 83 74 78 78 81 84 87 88 93 138 230 254 265 265 271 283 291 292 295 298 298 299 301 299 297 296 294 298 293 290
172 140 195 219 210 230 257 256 232 308 260 196 153 155 146 135 124 109 97 92 91 89 88 87 84 84 83 83 77 72 69 54 14 312 301 296 290 286 283 286 291 294 298 294 291 289 289 288 291
167 207 213 182 197 207 199 249 218 227 190 173 162 146 142 130 120 102 105 107 103 101 93 84 79 75 72 68 67 63 57 46 29 8 349 335 330 321 312 300 287 286 290 293 291 281 284 290 290
212 213 204 203 208 211 119 265 303 227 192 159 155 142 135 117 114 115 116 110 98 85 79 71 59 54 49 44 39 35 30 23 13 5 353 340 330 324 317 309 304 301 295 288 285 286 286 288 286
Wind_Speed_850mb
35 35 24 2 8 10 2 5 3 2 3 2 5 8 7 5 4 4 24 27 35 34 35 33 27 19 15 16 13 12 12 11 13 11 13 16 15 16 17 13 19 25 24 22 24 23 23 28 25
33 31 11 6 9 7 7 6 6 4 9 22 9 7 5 2 3 4 34 32 35 31 31 32 28 23 13 8 11 10 11 12 16 16 17 17 14 14 14 15 18 23 22 22 21 18 20 24 27
27 20 6 8 7 7 8 6 7 6 12 4 4 6 3 2 4 12 21 29 36 31 27 28 26 20 13 8 7 8 9 10 12 21 17 12 14 13 13 13 15 19 21 19 16 14 15 18 22
24 8 9 8 6 1 3 9 11 7 5 5 8 3 1 2 3 19 23 27 30 29 28 27 24 19 13 9 8 6 6 11 11 14 15 17 13 12 11 13 12 14 15 17 15 11 10 11 18
16 8 8 8 4 3 4 13 17 5 3 5 6 3 1 4 8 18 24 27 26 29 27 26 23 19 15 13 11 8 5 7 14 14 15 18 11 8 7 8 10 12 13 13 12 10 7 6 11
11 5 9 3 5 6 2 10 9 4 5 6 3 7 3 8 8 11 21 21 22 25 27 25 22 20 18 16 13 10 5 5 11 16 13 17 8 4 6 8 9 9 10 12 11 10 6 3 5
7 6 6 6 3 2 5 15 7 8 6 4 5 5 4 11 14 10 15 21 22 24 28 27 24 23 21 19 17 15 9 6 11 15 12 15 12 6 5 9 9 10 13 14 14 11 7 5 1
5 8 6 3 5 5 4 13 4 14 8 3 11 3 3 5 16 16 18 23 25 25 28 28 27 25 23 22 21 19 13 10 9 17 15 14 14 12 8 9 11 11 12 14 13 12 10 8 7
2 7 3 6 7 6 5 5 4 6 9 11 10 7 8 6 18 21 27 31 31 32 31 31 28 28 26 25 25 24 20 16 15 16 22 19 16 15 13 11 10 13 15 15 15 15 14 13 11
5 7 15 7 5 4 2 4 11 7 8 10 11 14 10 10 19 25 29 33 36 38 38 37 33 28 30 30 29 28 26 24 20 18 22 23 22 20 17 14 12 11 17 20 19 20 19 17 16
4 10 8 6 8 2 5 3 5 8 5 18 22 15 14 16 20 27 26 33 31 32 37 39 37 34 32 34 33 32 31 30 27 24 23 26 28 26 23 20 17 14 18 22 23 23 22 22 21
6 12 9 5 7 4 3 5 6 14 10 11 17 11 16 21 25 27 27 24 28 33 34 36 38 40 38 36 37 37 36 34 33 30 29 29 32 31 28 25 22 19 20 23 25 26 26 26 26
8 10 15 18 13 9 8 13 15 16 23 16 19 16 21 26 30 30 34 38 36 34 34 40 39 41 42 42 40 40 41 40 36 36 34 34 31 34 32 29 29 25 25 25 28 29 30 31 31
7 16 17 14 26 16 8 14 14 8 18 34 35 34 25 27 31 36 41 43 46 44 39 38 46 46 45 44 44 44 43 42 40 40 39 38 37 35 35 33 33 32 30 27 30 33 35 36 38
8 6 7 10 15 12 10 17 20 52 45 41 31 31 37 40 37 44 43 50 51 51 51 53 49 48 52 51 47 47 47 47 45 43 41 43 43 42 43 40 39 35 33 34 35 37 39 41 41
7 5 6 7 26 14 21 35 3 24 37 46 52 51 52 48 40 34 47 54 55 55 59 59 60 60 55 57 55 51 49 50 51 50 47 45 46 47 47 49 46 40 40 41 41 40 43 44 44
4 6 10 12 24 9 16 18 8 13 30 33 35 37 43 48 45 42 30 30 37 44 54 62 61 65 62 58 59 57 53 54 52 54 55 52 49 49 50 52 50 46 47 49 48 47 48 49 47
12 8 10 12 5 11 12 23 18 30 26 34 36 43 52 64 67 55 50 48 45 46 44 49 58 62 65 66 64 62 62 60 59 60 58 56 56 54 54 54 53 50 51 55 54 55 53 55 52
11 10 16 4 6 6 15 24 37 39 33 42 65 63 58 65 61 52 48 50 48 47 49 54 54 58 65 71 72 72 67 64 65 65 62 60 59 59 60 60 57 52 55 57 56 57 60 61 56
8 9 10 8 6 6 9 23 27 28 30 50 59 68 64 58 56 59 57 50 51 53 60 62 60 53 60 70 73 72 72 65 63 64 65 64 64 64 63 65 66 61 59 61 61 59 65 65 61
26 33 7 5 6 5 11 32 20 21 30 40 52 59 56 54 53 49 46 49 55 65 63 62 64 58 51 58 70 75 77 75 67 66 67 65 65 68 69 69 69 68 67 69 69 65 65 70 69
32 15 13 10 6 9 6 19 13 8 10 10 27 36 47 51 52 51 53 55 52 54 56 60 60 59 53 52 63 72 77 74 65 61 54 59 63 65 67 70 73 74 76 75 76 74 72 70 75
12 16 24 12 8 5 15 7 9 2 8 13 19 28 28 30 35 36 31 33 40 39 47 48 51 56 51 53 52 63 72 70 72 72 69 62 56 55 57 59 63 69 74 77 82 85 82 80 80
13 10 8 6 19 20 32 16 33 22 12 10 21 32 35 26 14 8 2 7 17 27 31 30 34 39 45 46 47 53 63 67 72 71 71 70 64 59 52 52 56 59 65 70 74 80 86 86 88
17 17 6 12 15 26 20 16 43 6 7 11 19 27 12 3 12 17 15 17 17 12 8 15 18 17 22 26 30 31 39 50 58 59 64 64 66 66 64 60 57 53 52 56 61 70 75 78 86
44 29 10 15 11 16 9 20 33 8 42 53 54 41 13 19 21 24 26 28 29 30 33 23 9 9 12 14 13 14 18 23 32 36 42 44 51 54 58 63 61 54 48 48 52 61 67 70 78
30 33 16 6 2 4 10 13 20 14 14 13 8 10 24 32 30 32 30 31 34 38 42 40 40 36 27 14 3 4 13 19 22 26 31 37 41 49 54 58 62 61 55 52 50 57 66 74 77
17 14 17 14 15 19 8 8 17 4 12 10 14 33 43 35 35 33 34 35 36 37 39 37 37 38 36 32 30 24 18 12 7 10 16 23 31 40 44 48 57 62 64 57 49 56 65 68 75
15 18 12 8 14 9 5 13 15 22 12 16 21 51 42 35 35 34 37 36 34 30 27 29 29 29 32 32 29 25 23 19 14 14 17 22 27 30 35 40 48 53 56 59 62 60 66 75 76
37 33 38 12 20 9 3 10 7 14 16 36 39 40 35 27 30 33 34 30 26 25 21 20 23 23 26 25 23 23 22 22 23 24 25 29 33 34 38 41 42 44 47 51 58 67 58 67 76
Wind_Direction_850mb
340 344 343 11 57 66 351 267 285 123 95 299 137 140 153 90 162 208 151 156 157 162 161 157 166 175 163 118 114 111 112 110 141 132 121 117 110 114 132 132 113 104 108 102 101 100 89 82 80
339 347 350 72 86 73 279 266 218 191 127 114 77 78 86 146 135 168 158 158 161 166 165 167 172 183 163 112 106 105 98 111 141 136 129 118 112 106 116 115 109 113 112 106 108 102 90 87 87
339 352 4 85 102 150 182 212 193 160 153 173 109 70 113 162 170 163 172 165 165 173 178 181 184 186 163 137 123 101 95 121 143 143 146 138 130 120 122 124 124 118 115 119 117 99 91 82 79
342 353 58 78 96 233 223 192 183 152 116 150 150 44 70 229 96 160 174 178 175 182 188 189 192 193 180 172 166 143 115 136 164 165 156 146 159 150 145 136 135 129 125 131 125 108 99 80 71
351 22 47 70 334 298 254 178 171 163 157 149 168 239 170 178 147 170 178 176 185 188 195 195 199 202 203 206 200 187 147 152 173 171 162 160 183 164 152 150 147 147 146 140 131 124 117 92 69
16 51 54 117 313 301 140 167 152 203 160 164 156 154 219 195 170 174 181 189 189 199 203 205 208 213 221 225 222 215 191 175 188 185 186 187 200 145 168 170 165 145 144 146 154 156 158 128 64
75 65 163 170 222 265 174 169 176 182 170 233 163 128 271 220 194 184 188 198 199 204 214 218 219 220 225 229 233 233 226 215 205 210 199 187 215 214 168 191 182 166 161 168 177 177 187 200 233
35 85 114 263 208 213 173 162 228 178 206 202 178 237 335 270 212 197 197 205 210 217 219 228 229 229 236 238 230 232 247 253 239 216 219 209 203 220 205 189 187 182 180 189 192 200 211 221 242
38 66 229 220 168 238 175 152 154 184 166 179 203 259 294 304 207 206 205 208 215 218 221 226 233 239 238 240 241 239 240 243 256 236 223 226 225 223 221 216 198 203 201 204 207 216 223 233 248
115 130 213 197 228 246 144 201 175 173 170 203 214 234 254 270 222 221 220 220 223 224 226 230 236 242 245 247 244 244 246 247 243 251 242 230 232 233 234 228 225 219 217 216 221 227 233 242 252
158 178 222 264 200 252 315 305 198 186 223 219 223 223 237 230 234 231 237 242 246 243 239 241 244 246 247 252 253 250 249 249 252 246 240 238 236 239 238 235 231 229 226 229 232 235 240 245 253
188 221 202 237 227 169 225 293 285 219 223 262 200 243 239 244 246 252 247 251 254 254 250 248 248 249 251 254 254 256 254 255 253 252 250 244 240 241 247 246 241 238 235 237 241 244 248 253 256
208 204 209 228 226 247 253 244 248 248 243 248 239 258 264 256 258 261 265 260 253 254 260 254 251 249 250 254 255 256 257 257 258 254 252 251 252 244 243 246 247 246 244 244 250 252 253 256 260
219 213 222 226 242 252 251 268 249 214 251 249 251 269 263 258 267 265 261 265 261 259 260 264 256 253 250 252 256 258 262 263 260 257 253 254 253 250 246 249 249 250 253 255 255 258 257 258 260
242 290 332 213 222 239 227 276 232 251 257 262 253 255 269 271 261 261 267 269 269 269 268 263 262 259 254 254 257 258 260 262 260 260 259 256 255 256 256 258 256 255 257 257 255 258 259 261 264
172 167 199 237 184 231 167 260 149 241 233 247 258 264 269 271 270 258 280 270 264 265 268 271 263 258 258 256 256 257 261 261 260 261 260 261 261 259 260 261 262 262 260 261 259 260 263 265 267
270 217 221 300 207 164 188 269 267 224 220 235 250 258 269 279 279 280 266 291 276 275 271 268 265 258 257 257 256 257 261 260 261 261 262 262 263 262 263 264 264 263 264 265 266 265 266 267 269
192 198 235 210 259 218 209 258 253 252 263 263 262 264 275 282 281 278 270 277 281 276 277 274 265 258 256 256 254 254 255 257 257 258 258 260 262 264 262 264 265 266 267 267 268 269 269 271 272
181 187 204 231 260 208 235 247 263 263 253 259 266 273 272 278 279 277 274 273 269 269 277 279 274 265 255 252 249 248 252 255 256 258 261 261 261 263 264 264 265 265 267 269 270 272 271 270 273
181 192 215 296 241 210 289 266 264 253 247 250 263 272 274 276 270 269 270 272 271 275 278 271 268 268 259 253 253 254 256 259 262 264 264 264 263 263 263 264 267 266 266 268 268 269 273 273 272
224 225 142 187 355 299 347 289 240 259 238 249 252 258 262 265 267 270 271 272 274 276 270 271 258 262 265 260 253 253 253 256 259 263 264 263 263 264 264 266 266 268 267 268 271 269 269 272 275
223 178 165 183 99 241 131 278 230 229 249 209 247 250 255 258 262 268 276 280 282 282 269 262 253 251 258 263 254 255 256 259 265 270 277 276 272 269 269 271 272 272 272 271 273 274 271 270 269
220 153 195 164 177 29 245 286 288 240 282 266 257 255 259 271 278 285 285 289 281 289 275 256 247 242 251 259 261 256 257 264 268 272 276 277 284 281 279 277 276 277 277 278 275 275 274 272 271
134 78 81 116 223 243 234 201 265 234 199 218 244 250 269 285 281 281 290 311 296 288 278 253 241 242 242 259 268 267 264 265 267 273 279 285 288 288 290 291 287 286 284 285 285 282 279 277 273
166 134 184 214 210 239 152 178 246 264 276 239 244 256 240 148 141 135 107 77 64 29 316 245 231 224 240 256 271 281 282 281 281 284 286 290 292 293 295 293 292 290 291 290 290 288 285 283 279
201 197 164 195 209 233 183 214 236 213 240 260 250 255 183 153 143 116 93 78 71 76 71 78 121 195 216 226 240 269 285 286 292 297 297 301 302 304 304 302 297 291 293 295 298 296 291 288 283
192 213 199 109 58 89 213 280 303 239 250 250 258 217 178 148 128 110 95 83 74 78 78 81 84 87 88 93 138 230 254 265 265 271 283 291 292 295 298 298 299 301 299 297 296 294 298 293 290
172 140 195 219 210 230 257 256 232 308 260 196 153 155 146 135 124 109 97 92 91 89 88 87 84 84 83 83 77 72 69 54 14 312 301 296 290 286 283 286 291 294 298 294 291 289 289 288 291
167 207 213 182 197 207 199 249 218 227 190 173 162 146 142 130 120 102 105 107 103 101 93 84 79 75 72 68 67 63 57 46 29 8 349 335 330 321 312 300 287 286 290 293 291 281 284 290 290
212 213 204 203 208 211 119 265 303 227 192 159 155 142 135 117 114 115 116 110 98 85 79 71 59 54 49 44 39 35 30 23 13 5 353 340 330 324 317 309 304 301 295 288 285 286 286 288 286